CPA750 VTBS-VHHH

Flight info

Callsign CPA750
Flight time 2h 4m
Altitude 37000
Route SELKA1G SELKA A1 SANOT Y15 GUROK A202 VILAO/K0896F370 A202 ASSAD/K0895S1130 A202 SIKOU/N0482F370 V571 CANTO
Aircraft B77W/H-SDE1E2E3FGHIJ2J3J4J5M1RWXY/LB1D1

Departure

Time 2026-05-04 05:00
Airport Suvarnabhumi Airport (VTBS)

Arrival

Time 2026-05-04 07:04
Airport Hong Kong International Airport (VHHH)
Time Latitude Longitude Altitude Speed Heading
2026-05-04 04:14 13.69642 100.74708 18 ft 0 kts 104°
2026-05-04 04:49 13.69643 100.74707 18 ft 2 kts 104°
2026-05-04 04:49 13.69649 100.74682 19 ft 4 kts 105°
2026-05-04 04:49 13.69656 100.74655 18 ft 4 kts 99°
2026-05-04 04:50 13.69656 100.74630 19 ft 4 kts 60°
2026-05-04 04:50 13.69641 100.74619 21 ft 4 kts 14°
2026-05-04 04:50 13.69615 100.74612 20 ft 3 kts 14°
2026-05-04 04:50 13.69611 100.74611 18 ft 0 kts 14°
2026-05-04 04:53 13.69614 100.74612 18 ft 3 kts 14°
2026-05-04 04:53 13.69647 100.74621 18 ft 10 kts 14°
2026-05-04 04:53 13.69741 100.74646 18 ft 15 kts 14°
2026-05-04 04:54 13.69816 100.74638 18 ft 11 kts 321°
2026-05-04 04:54 13.69846 100.74567 18 ft 11 kts 284°
2026-05-04 04:54 13.69865 100.74490 18 ft 11 kts 285°
2026-05-04 04:54 13.69890 100.74416 18 ft 11 kts 308°
2026-05-04 04:55 13.69963 100.74404 18 ft 11 kts 12°
2026-05-04 04:55 13.70040 100.74424 18 ft 11 kts 14°
2026-05-04 04:55 13.70117 100.74443 18 ft 11 kts 14°
2026-05-04 04:55 13.70193 100.74463 18 ft 11 kts 14°
2026-05-04 04:56 13.70269 100.74483 18 ft 10 kts 14°
2026-05-04 04:56 13.70324 100.74465 18 ft 8 kts 308°
2026-05-04 04:56 13.70331 100.74448 18 ft 0 kts 288°
2026-05-04 04:58 13.70332 100.74446 18 ft 2 kts 288°
2026-05-04 04:58 13.70346 100.74398 19 ft 10 kts 281°
2026-05-04 04:58 13.70339 100.74329 19 ft 8 kts 248°
2026-05-04 04:59 13.70306 100.74304 20 ft 2 kts 199°
2026-05-04 04:59 13.70264 100.74292 20 ft 19 kts 195°
2026-05-04 04:59 13.69933 100.74205 18 ft 87 kts 194°
2026-05-04 04:59 13.69119 100.73990 18 ft 152 kts 194°
2026-05-04 05:00 13.67958 100.73681 242 ft 181 kts 194°
2026-05-04 05:00 13.66708 100.73321 761 ft 194 kts 194°
2026-05-04 05:00 13.64092 100.72647 2204 ft 192 kts 192°
2026-05-04 05:01 13.62793 100.72328 2899 ft 192 kts 193°
2026-05-04 05:01 13.61482 100.71985 3461 ft 200 kts 193°
2026-05-04 05:01 13.60039 100.71605 3684 ft 229 kts 193°
2026-05-04 05:01 13.58386 100.71307 3864 ft 254 kts 175°
2026-05-04 05:02 13.56687 100.71832 4406 ft 261 kts 145°
2026-05-04 05:02 13.55445 100.73159 5131 ft 265 kts 117°
2026-05-04 05:02 13.54773 100.74913 5958 ft 266 kts 107°
2026-05-04 05:02 13.54265 100.76760 6753 ft 270 kts 105°
2026-05-04 05:03 13.53779 100.78629 7565 ft 272 kts 104°
2026-05-04 05:03 13.53332 100.80522 8275 ft 275 kts 97°
2026-05-04 05:04 13.55625 100.85915 10212 ft 294 kts 53°
2026-05-04 05:04 13.56936 100.87610 10565 ft 316 kts 52°
2026-05-04 05:04 13.58366 100.89447 10751 ft 342 kts 52°
2026-05-04 05:06 13.69982 101.04517 14745 ft 405 kts 52°
2026-05-04 05:06 13.71723 101.06796 15340 ft 408 kts 52°
2026-05-04 05:06 13.73484 101.09101 15916 ft 412 kts 52°
2026-05-04 05:07 13.75260 101.11428 16486 ft 415 kts 52°
2026-05-04 05:07 13.77053 101.13777 17030 ft 420 kts 52°
2026-05-04 05:07 13.78864 101.16150 17586 ft 423 kts 52°
2026-05-04 05:09 13.93840 101.35800 21372 ft 449 kts 51°
2026-05-04 05:09 13.95773 101.38340 21781 ft 453 kts 52°
2026-05-04 05:10 13.97725 101.40906 22110 ft 459 kts 51°
2026-05-04 05:10 13.99704 101.43506 22480 ft 463 kts 51°
2026-05-04 05:10 14.01692 101.46118 22976 ft 464 kts 51°
2026-05-04 05:10 14.03663 101.48710 23378 ft 467 kts 51°
2026-05-04 05:11 14.05671 101.51354 23756 ft 470 kts 51°
2026-05-04 05:11 14.07689 101.54013 24084 ft 473 kts 51°
2026-05-04 05:11 14.09719 101.56687 24444 ft 475 kts 51°
2026-05-04 05:11 14.11759 101.59374 24774 ft 477 kts 51°
2026-05-04 05:12 14.13805 101.62070 25112 ft 480 kts 51°
2026-05-04 05:12 14.15871 101.64793 25473 ft 483 kts 51°
2026-05-04 05:12 14.17943 101.67525 25946 ft 486 kts 51°
2026-05-04 05:12 14.20026 101.70273 26446 ft 488 kts 52°
2026-05-04 05:13 14.22094 101.73001 26875 ft 491 kts 52°
2026-05-04 05:13 14.24203 101.75785 27293 ft 495 kts 52°
2026-05-04 05:13 14.26330 101.78594 27690 ft 499 kts 52°
2026-05-04 05:13 14.28470 101.81421 28118 ft 502 kts 51°
2026-05-04 05:14 14.30623 101.84269 28487 ft 505 kts 52°
2026-05-04 05:14 14.32627 101.87260 28857 ft 509 kts 58°
2026-05-04 05:14 14.34346 101.90463 29247 ft 512 kts 63°
2026-05-04 05:14 14.35796 101.93827 29623 ft 515 kts 69°
2026-05-04 05:15 14.36993 101.97319 29962 ft 518 kts 71°
2026-05-04 05:15 14.38141 102.00796 30264 ft 520 kts 71°
2026-05-04 05:15 14.39303 102.04333 30608 ft 521 kts 71°
2026-05-04 05:15 14.40468 102.07855 31025 ft 520 kts 71°
2026-05-04 05:16 14.41645 102.11376 31442 ft 519 kts 71°
2026-05-04 05:16 14.42830 102.14890 31840 ft 519 kts 70°
2026-05-04 05:16 14.44021 102.18404 32232 ft 519 kts 70°
2026-05-04 05:16 14.45213 102.21916 32626 ft 519 kts 70°
2026-05-04 05:17 14.46406 102.25427 33032 ft 518 kts 70°
2026-05-04 05:17 14.47580 102.28889 33434 ft 518 kts 70°
2026-05-04 05:17 14.48768 102.32398 33826 ft 518 kts 70°
2026-05-04 05:17 14.49956 102.35907 34174 ft 518 kts 70°
2026-05-04 05:18 14.51141 102.39413 34533 ft 517 kts 70°
2026-05-04 05:18 14.52322 102.42912 34906 ft 516 kts 70°
2026-05-04 05:18 14.53500 102.46401 35284 ft 514 kts 70°
2026-05-04 05:18 14.54673 102.49879 35654 ft 513 kts 70°
2026-05-04 05:19 14.55829 102.53304 35994 ft 512 kts 70°
2026-05-04 05:19 14.56995 102.56765 36327 ft 511 kts 70°
2026-05-04 05:19 14.58162 102.60228 36660 ft 510 kts 70°
2026-05-04 05:19 14.59328 102.63689 36912 ft 512 kts 70°
2026-05-04 05:20 14.61676 102.70668 36952 ft 514 kts 70°
2026-05-04 05:20 14.64007 102.77605 36948 ft 508 kts 70°
2026-05-04 05:21 14.66311 102.84427 36957 ft 505 kts 70°
2026-05-04 05:21 14.68625 102.91271 36955 ft 504 kts 70°
2026-05-04 05:22 14.70932 102.98110 36959 ft 504 kts 70°
2026-05-04 05:22 14.73223 103.04914 36961 ft 505 kts 70°
2026-05-04 05:23 14.75533 103.11782 36959 ft 507 kts 70°
2026-05-04 05:23 14.77845 103.18664 36957 ft 508 kts 70°
2026-05-04 05:24 14.80163 103.25571 36958 ft 509 kts 70°
2026-05-04 05:24 14.82484 103.32494 36957 ft 510 kts 70°
2026-05-04 05:25 14.84878 103.39344 36960 ft 510 kts 65°
2026-05-04 05:25 14.88337 103.45707 36966 ft 507 kts 53°
2026-05-04 05:26 14.92770 103.51349 36963 ft 505 kts 47°
2026-05-04 05:26 14.97398 103.56812 36960 ft 505 kts 47°
2026-05-04 05:28 15.16162 103.78287 36960 ft 500 kts 33°
2026-05-04 05:29 15.22135 103.81775 36965 ft 495 kts 20°
2026-05-04 05:29 15.28487 103.84499 36961 ft 494 kts 19°
2026-05-04 05:31 15.53806 103.95534 36960 ft 495 kts 20°
2026-05-04 05:32 15.60148 103.98329 36962 ft 495 kts 20°
2026-05-04 05:33 15.69675 104.02529 36968 ft 496 kts 20°
2026-05-04 05:33 15.75992 104.05317 36965 ft 497 kts 20°
2026-05-04 05:34 15.82355 104.08127 36957 ft 497 kts 20°
2026-05-04 05:34 15.88722 104.10941 36972 ft 497 kts 20°
2026-05-04 05:35 15.95090 104.13758 36964 ft 498 kts 21°
2026-05-04 05:35 16.01424 104.16588 36960 ft 500 kts 24°
2026-05-04 05:36 16.07290 104.20503 36966 ft 504 kts 37°
2026-05-04 05:36 16.12259 104.25662 36964 ft 506 kts 47°
2026-05-04 05:37 16.16928 104.31153 36951 ft 507 kts 47°
2026-05-04 05:37 16.21614 104.36564 36959 ft 507 kts 46°
2026-05-04 05:38 16.28722 104.44691 36952 ft 506 kts 47°
2026-05-04 05:38 16.33419 104.50148 36961 ft 506 kts 47°
2026-05-04 05:39 16.40456 104.58350 36945 ft 506 kts 47°
2026-05-04 05:40 16.47455 104.66502 36938 ft 505 kts 47°
2026-05-04 05:40 16.52134 104.71955 36944 ft 504 kts 47°
2026-05-04 05:41 16.56716 104.77494 36945 ft 506 kts 52°
2026-05-04 05:41 16.60568 104.83572 36944 ft 506 kts 57°
2026-05-04 05:42 16.64315 104.89777 36939 ft 506 kts 57°
2026-05-04 05:42 16.68095 104.95964 36942 ft 505 kts 56°
2026-05-04 05:43 16.71889 105.02118 36952 ft 504 kts 56°
2026-05-04 05:45 16.86982 105.26648 36950 ft 503 kts 56°
2026-05-04 05:47 17.01431 105.50275 36973 ft 506 kts 56°
2026-05-04 05:47 17.05219 105.56483 36971 ft 507 kts 56°
2026-05-04 05:48 17.09619 105.63699 36976 ft 507 kts 56°
2026-05-04 05:48 17.12789 105.68905 36987 ft 507 kts 56°
2026-05-04 05:49 17.16554 105.75091 36993 ft 508 kts 56°
2026-05-04 05:49 17.20346 105.81329 36999 ft 508 kts 56°
2026-05-04 05:51 17.35500 106.06313 37019 ft 510 kts 56°
2026-05-04 05:52 17.39308 106.12567 37037 ft 509 kts 56°
2026-05-04 05:52 17.43149 106.18796 37037 ft 509 kts 56°
2026-05-04 05:54 17.59117 106.44806 37033 ft 513 kts 56°
2026-05-04 05:55 17.62348 106.50086 37008 ft 514 kts 56°
2026-05-04 05:55 17.66177 106.56349 37026 ft 514 kts 56°
2026-05-04 05:56 17.70031 106.62661 37018 ft 513 kts 56°
2026-05-04 05:56 17.73872 106.68970 37000 ft 513 kts 56°
2026-05-04 05:57 17.77696 106.75262 37010 ft 513 kts 56°
2026-05-04 05:57 17.81431 106.81409 37000 ft 513 kts 56°
2026-05-04 05:58 17.85263 106.87723 37000 ft 513 kts 56°
2026-05-04 05:58 17.89096 106.94042 36995 ft 513 kts 56°
2026-05-04 05:59 17.92957 107.00347 36995 ft 513 kts 55°
2026-05-04 05:59 17.96827 107.06653 36994 ft 514 kts 55°
2026-05-04 06:00 18.00662 107.12919 36993 ft 514 kts 55°
2026-05-04 06:00 18.04523 107.19240 36995 ft 514 kts 55°
2026-05-04 06:01 18.08383 107.25565 36993 ft 514 kts 56°
2026-05-04 06:03 18.23726 107.50867 36991 ft 513 kts 56°
2026-05-04 06:05 18.42146 107.78378 36991 ft 511 kts 47°
2026-05-04 06:06 18.46724 107.84111 36992 ft 511 kts 48°
2026-05-04 06:06 18.51273 107.89875 36991 ft 512 kts 48°
2026-05-04 06:07 18.55776 107.95613 36990 ft 512 kts 48°
2026-05-04 06:07 18.60316 108.01406 36995 ft 513 kts 48°
2026-05-04 06:08 18.64859 108.07205 37067 ft 513 kts 48°
2026-05-04 06:08 18.69407 108.13011 37088 ft 515 kts 48°
2026-05-04 06:09 18.73933 108.18796 37084 ft 514 kts 48°
2026-05-04 06:11 18.92079 108.42044 37095 ft 515 kts 48°
2026-05-04 06:13 19.10315 108.65497 37097 ft 517 kts 49°
2026-05-04 06:14 19.26272 108.86092 37107 ft 520 kts 49°
2026-05-04 06:15 19.30836 108.91972 37103 ft 521 kts 49°
2026-05-04 06:15 19.35437 108.97897 37102 ft 521 kts 49°
2026-05-04 06:16 19.40038 109.03832 37107 ft 521 kts 49°
2026-05-04 06:16 19.44638 109.09774 37115 ft 522 kts 49°
2026-05-04 06:17 19.49207 109.15683 37098 ft 523 kts 49°
2026-05-04 06:17 19.53817 109.21660 37107 ft 524 kts 49°
2026-05-04 06:18 19.58404 109.27683 37104 ft 525 kts 49°
2026-05-04 06:20 19.76746 109.51870 37098 ft 528 kts 49°
2026-05-04 06:21 19.88219 109.67034 37100 ft 529 kts 49°
2026-05-04 06:22 19.92821 109.73128 37102 ft 529 kts 49°
2026-05-04 06:25 20.24947 110.15848 37100 ft 529 kts 49°
2026-05-04 06:26 20.29539 110.21981 37109 ft 530 kts 49°
2026-05-04 06:26 20.34164 110.28090 37094 ft 529 kts 48°
2026-05-04 06:27 20.45745 110.43246 37103 ft 527 kts 48°
2026-05-04 06:28 20.49957 110.49652 37104 ft 529 kts 59°
2026-05-04 06:28 20.53087 110.56765 37103 ft 531 kts 69°
2026-05-04 06:29 20.55530 110.64198 37111 ft 532 kts 70°
2026-05-04 06:29 20.57954 110.71604 37113 ft 532 kts 69°
2026-05-04 06:30 20.60453 110.79057 37107 ft 534 kts 69°
2026-05-04 06:30 20.62969 110.86526 37105 ft 535 kts 69°
2026-05-04 06:31 20.65482 110.94014 37101 ft 535 kts 69°
2026-05-04 06:31 20.67986 111.01423 37104 ft 534 kts 69°
2026-05-04 06:33 20.78039 111.31285 37104 ft 534 kts 69°
2026-05-04 06:34 20.80540 111.38751 37103 ft 533 kts 69°
2026-05-04 06:34 20.83040 111.46225 37103 ft 533 kts 69°
2026-05-04 06:36 20.93096 111.76023 37105 ft 534 kts 69°
2026-05-04 06:37 20.95615 111.83506 37104 ft 535 kts 69°
2026-05-04 06:37 20.98114 111.90943 37127 ft 535 kts 69°
2026-05-04 06:38 21.00630 111.98442 37113 ft 536 kts 69°
2026-05-04 06:40 21.10656 112.28447 37002 ft 538 kts 69°
2026-05-04 06:40 21.11913 112.32223 36765 ft 538 kts 69°
2026-05-04 06:40 21.13169 112.35997 36509 ft 537 kts 69°
2026-05-04 06:41 21.14421 112.39767 35908 ft 538 kts 69°
2026-05-04 06:41 21.15678 112.43550 35160 ft 540 kts 70°
2026-05-04 06:41 21.16914 112.47275 34672 ft 535 kts 70°
2026-05-04 06:41 21.18155 112.51021 34159 ft 531 kts 70°
2026-05-04 06:42 21.19385 112.54736 33613 ft 528 kts 70°
2026-05-04 06:42 21.20607 112.58429 33109 ft 524 kts 70°
2026-05-04 06:42 21.21817 112.62089 32602 ft 519 kts 70°
2026-05-04 06:44 21.30012 112.86951 29083 ft 494 kts 70°
2026-05-04 06:44 21.31148 112.90407 28593 ft 489 kts 70°
2026-05-04 06:44 21.32274 112.93836 28090 ft 485 kts 70°
2026-05-04 06:45 21.33386 112.97226 27598 ft 481 kts 70°
2026-05-04 06:45 21.34489 113.00595 27138 ft 477 kts 70°
2026-05-04 06:45 21.35582 113.03937 26660 ft 473 kts 70°
2026-05-04 06:45 21.36668 113.07257 26186 ft 470 kts 70°
2026-05-04 06:46 21.37725 113.10491 25860 ft 463 kts 70°
2026-05-04 06:46 21.38794 113.13752 25305 ft 463 kts 70°
2026-05-04 06:46 21.39863 113.17009 24782 ft 463 kts 70°
2026-05-04 06:46 21.40931 113.20265 24247 ft 463 kts 70°
2026-05-04 06:48 21.48166 113.42407 20470 ft 441 kts 71°
2026-05-04 06:48 21.49177 113.45510 19955 ft 440 kts 71°
2026-05-04 06:49 21.50179 113.48610 19453 ft 440 kts 71°
2026-05-04 06:50 21.60917 113.66284 14890 ft 389 kts 41°
2026-05-04 06:51 21.62858 113.68321 14385 ft 391 kts 42°
2026-05-04 06:51 21.64790 113.70364 13890 ft 385 kts 42°
2026-05-04 06:51 21.66712 113.72346 13317 ft 383 kts 40°
2026-05-04 06:51 21.68688 113.74266 12829 ft 383 kts 39°
2026-05-04 06:52 21.70672 113.76172 12306 ft 377 kts 39°
2026-05-04 06:52 21.72581 113.78025 11810 ft 364 kts 40°
2026-05-04 06:52 21.74424 113.79828 11317 ft 353 kts 40°
2026-05-04 06:52 21.76211 113.81571 10851 ft 341 kts 38°
2026-05-04 06:53 21.78213 113.82779 10361 ft 332 kts
2026-05-04 06:53 21.80438 113.82848 10228 ft 310 kts 347°
2026-05-04 06:53 21.82521 113.82474 10140 ft 299 kts 346°
2026-05-04 06:53 21.84544 113.82124 10030 ft 290 kts 346°
2026-05-04 06:54 21.86518 113.81783 9847 ft 285 kts 346°
2026-05-04 06:54 21.88465 113.81443 9538 ft 283 kts 346°
2026-05-04 06:54 21.90403 113.81103 9219 ft 282 kts 347°
2026-05-04 06:54 21.92333 113.80766 8925 ft 280 kts 347°
2026-05-04 06:55 21.94250 113.80433 8620 ft 276 kts 346°
2026-05-04 06:55 21.96108 113.80110 8092 ft 275 kts 346°
2026-05-04 06:55 21.97995 113.79781 7556 ft 274 kts 347°
2026-05-04 06:55 21.99871 113.79455 7085 ft 271 kts 347°
2026-05-04 06:56 22.01731 113.79132 6596 ft 269 kts 347°
2026-05-04 06:57 22.13953 113.76047 3522 ft 243 kts 333°
2026-05-04 06:58 22.15452 113.75253 3349 ft 236 kts 335°
2026-05-04 06:58 22.16905 113.74505 3246 ft 225 kts 335°
2026-05-04 06:58 22.18288 113.73805 3110 ft 216 kts 335°
2026-05-04 06:58 22.19621 113.73134 2950 ft 206 kts 336°
2026-05-04 06:59 22.20888 113.72500 2825 ft 196 kts 337°
2026-05-04 06:59 22.22107 113.71888 2767 ft 192 kts 336°
2026-05-04 06:59 22.23369 113.71585 2610 ft 189 kts 13°
2026-05-04 06:59 22.24471 113.72258 2582 ft 182 kts 44°
2026-05-04 07:01 22.29373 113.79564 1722 ft 160 kts 71°
2026-05-04 07:01 22.29740 113.80700 1477 ft 160 kts 72°
2026-05-04 07:02 22.30100 113.81822 1275 ft 155 kts 72°
2026-05-04 07:02 22.30439 113.82882 1079 ft 145 kts 72°
2026-05-04 07:02 22.30767 113.83901 890 ft 144 kts 71°
2026-05-04 07:02 22.31095 113.84947 692 ft 150 kts 71°
2026-05-04 07:03 22.31444 113.86028 475 ft 155 kts 69°
2026-05-04 07:03 22.31804 113.87126 277 ft 156 kts 70°
2026-05-04 07:03 22.32160 113.88241 82 ft 157 kts 68°
2026-05-04 07:03 22.32506 113.89298 37 ft 135 kts 71°
2026-05-04 07:04 22.32746 113.90054 37 ft 80 kts 70°
2026-05-04 07:04 22.32820 113.90402 37 ft 30 kts 96°
2026-05-04 07:04 22.32786 113.90616 37 ft 25 kts 100°
2026-05-04 07:04 22.32787 113.90745 37 ft 15 kts 74°
2026-05-04 07:05 22.32820 113.90849 37 ft 15 kts 71°
2026-05-04 07:05 22.32854 113.90953 37 ft 15 kts 70°
2026-05-04 07:05 22.32888 113.91058 37 ft 15 kts 71°
2026-05-04 07:05 22.32920 113.91161 37 ft 15 kts 71°
2026-05-04 07:06 22.32997 113.91397 37 ft 19 kts 71°
2026-05-04 07:06 22.33040 113.91532 37 ft 19 kts 71°
2026-05-04 07:06 22.33082 113.91667 37 ft 19 kts 70°
2026-05-04 07:07 22.33126 113.91802 37 ft 19 kts 70°
2026-05-04 07:08 22.32712 113.92302 37 ft 21 kts 161°
2026-05-04 07:09 22.32582 113.92350 37 ft 16 kts 160°
2026-05-04 07:09 22.32484 113.92387 37 ft 15 kts 161°
2026-05-04 07:09 22.32387 113.92423 37 ft 15 kts 161°
2026-05-04 07:09 22.32300 113.92455 37 ft 12 kts 161°
2026-05-04 07:10 22.32247 113.92510 37 ft 12 kts 97°
2026-05-04 07:10 22.32265 113.92591 35 ft 12 kts 71°
2026-05-04 07:12 22.31773 113.92773 37 ft 13 kts 246°
2026-05-04 07:12 22.31737 113.92666 37 ft 18 kts 251°
2026-05-04 07:12 22.31698 113.92543 37 ft 18 kts 251°
2026-05-04 07:12 22.31658 113.92419 37 ft 18 kts 251°
2026-05-04 07:13 22.31618 113.92294 37 ft 18 kts 251°
2026-05-04 07:13 22.31586 113.92192 37 ft 13 kts 251°
2026-05-04 07:13 22.31559 113.92109 37 ft 10 kts 251°
2026-05-04 07:14 22.31228 113.92169 37 ft 18 kts 161°
2026-05-04 07:14 22.31112 113.92212 37 ft 18 kts 161°
2026-05-04 07:15 22.30997 113.92254 37 ft 18 kts 161°
2026-05-04 07:15 22.30881 113.92297 37 ft 18 kts 161°
2026-05-04 07:15 22.30782 113.92334 37 ft 12 kts 161°
2026-05-04 07:15 22.30739 113.92398 37 ft 12 kts 88°
2026-05-04 07:16 22.30764 113.92485 37 ft 12 kts 70°
2026-05-04 07:16 22.30792 113.92573 37 ft 13 kts 71°
2026-05-04 07:16 22.30822 113.92666 37 ft 13 kts 70°
2026-05-04 07:16 22.30880 113.92739 36 ft 13 kts 28°
2026-05-04 07:17 22.30962 113.92783 37 ft 13 kts 26°
2026-05-04 07:17 22.31021 113.92813 37 ft 7 kts 25°
2026-05-04 07:17 22.31066 113.92820 37 ft 6 kts 329°
2026-05-04 07:17 22.31090 113.92783 37 ft 6 kts 298°
2026-05-04 07:18 22.31102 113.92755 37 ft 3 kts 296°
2026-05-04 07:18 22.31108 113.92743 37 ft 0 kts 296°